User: anonymous   Login
Location: �chenoz-la-M�line
(47.6009°N, 6.1354°E)
Time: 18:59:07
(UTC+00:00)
Language:

GEOS 3 Rocket - Orbit

View from above orbital plane
View from above orbital plane
View from above satellite
View from above satellite

Ground track
Ground track

The orbit data is extracted from the following two-line orbital elements,

1  7735U 75027B   21103.21054933 -.00000135  00000-0  18435-4 0  9992
2  7735 114.9762  95.8669 0050428 231.8204 127.8328 14.24634579389080
Epoch (UTC): 13 April 2021 05:03:11
Eccentricity: 0.0050428
inclination: 114.9762°
perigee height: 773 km
apogee height: 846 km
right ascension of ascending node: 95.8669°
argument of perigee: 231.8204°
revolutions per day: 14.24634579
mean anomaly at epoch: 127.8328°
orbit number at epoch: 38908

The dashed part of the orbit path shows where the satellite is in the earth's shadow,  

DLR